Regional Weather Roundup
Issued by NWS

Home | Current Version | Previous Version | Graphics & Text | Print | Product List | Glossary On
Versions: 1 2 3 4 5 6 7 8 9 10 11 12 13 14 15 16 17 18 19 20 21 22 23 24 25 26 27 28 29 30 31 32 33 34 35 36 37 38 39 40 41 42 43 44 45 46 47 48 49 50
650
ASUS43 KLOT 192208
RWRIL

ILLINOIS REGIONAL WEATHER ROUNDUP
NATIONAL WEATHER SERVICE CHICAGO/ROMEOVILLE IL
400 PM CST SUN NOV 19 2017

NOTE: "FAIR" INDICATES FEW OR NO CLOUDS BELOW 12,000 FEET WITH NO
SIGNIFICANT WEATHER AND/OR OBSTRUCTIONS TO VISIBILITY.

* THESE STATIONS ARE NOT UNDER NWS QUALITY CONTROL. THEY ALSO MAY NOT
  REPORT WEATHER SUCH AS PRECIPITATION OR FOG.

ILZ001-002-007-009-015-016-024-192300-
NORTHWEST ILLINOIS

CITY           SKY/WX    TMP DP  RH WIND       PRES   REMARKS
MOLINE         CLEAR     36  18  48 SW9       30.10F WCI  29
STERLING*      CLEAR     32  19  58 W12       30.10R WCI  23
SAVANNA*       CLEAR     33  18  52 SW9       30.08F WCI  26
$$

ILZ003-004-008-010-011-017-018-192300-
NORTH CENTRAL ILLINOIS

CITY           SKY/WX    TMP DP  RH WIND       PRES   REMARKS
ROCKFORD       PTCLDY    34  18  52 W14G21    30.08R WCI  25
FREEPORT*      PTCLDY    32  18  56 W9        30.08S WCI  24
ROCHELLE*      PTCLDY    32  20  62 W13       30.09R WCI  22
DE KALB*       MOCLDY    34  21  59 W15       30.07R WCI  24
PERU*          CLEAR     32  19  58 W17       30.12R WCI  21
$$

ILZ005-006-012>014-019>023-192300-
NORTHEAST ILLINOIS

CITY           SKY/WX    TMP DP  RH WIND       PRES   REMARKS
CHICAGO-OHARE  MOCLDY    34  16  47 W14       30.05R WCI  25
CHICAGO-MIDWAY MOCLDY    35  17  47 W10       30.06R WCI  27
AURORA         PTCLDY    34  20  56 W10       30.08R WCI  26
LANSING*       CLEAR     34  21  60 W15G22    30.06R WCI  24
JOLIET*        CLEAR     35  20  54 W9        30.09R WCI  27
WAUKEGAN       PTCLDY    32  15  49 VRB7      30.02R WCI  26
DUPAGE AIRPORT PTCLDY    32  17  54 W14       30.06R WCI  22
KANKAKEE*      CLEAR     33  21  62 W16       30.10R WCI  22
WHEELING       CLEAR     34  16  47 W12       30.06R WCI  25
MORRIS*        CLEAR     32  21  63 W13       30.08S WCI  23
ROMEOVILLE*    PTCLDY    33  22  62 W12G17    30.07S WCI  25
NORTHERLY ISL    N/A     34  16  48 W10         N/A  WCI  26
$$

LMZ740>746-192300-
SOUTHERN LAKE MICHIGAN

STATION/POSITION SKY/WX   TEMP    WIND        PRES    VSBY  WAVE
                          AIR SEA DIR/SP/G                  HT/PER
                          (F)     (DEG/KT/KT) (MB)    (MI)  (FT/S)
SOUTHERN BUOY              33 49  310/ 16/ 19 1016.1          5/ 7
HARRISON CRIB              35     270/ 20/ 22   N/A
BURNHAM HARBOR             34     260/ 11/ 15   N/A
CALUMET HARBOR             34     250/  7/ 10 1016.9R
BURNS HARBOR               35     270/ 14/ 17 1017.6S
MICHIGAN CITY              35     260/ 19/ 21   N/A
$$

ILZ025>027-034>036-040-047-049-050-058-095>099-192300-
WEST-CENTRAL ILLINOIS

CITY           SKY/WX    TMP DP  RH WIND       PRES   REMARKS
QUINCY         CLEAR     40  22  48 SW7       30.15R
GALESBURG*     CLEAR     35  22  58 SW6       30.14F WCI  30
MACOMB*        CLEAR     37  24  57 W7        30.17S WCI  32
JACKSONVILLE*  CLEAR     38  22  51 W10       30.17R WCI  31
PITTSFIELD*    CLEAR     41  21  44 W6        30.18R
$$

ILZ028>032-037-038-041>044-048-051>054-059>061-192300-
CENTRAL ILLINOIS

CITY           SKY/WX    TMP DP  RH WIND       PRES   REMARKS
PONTIAC        CLEAR     33  22  65 W15G21    30.12S WCI  23
BLOOMINGTON    CLEAR     34  19  54 W14       30.13R WCI  25
DECATUR        CLEAR     35  18  49 W16       30.15S WCI  25
PEORIA         CLEAR     36  18  48 W9        30.15S WCI  29
LACON*         CLEAR     35  19  53 W12G17    30.13R WCI  26
LINCOLN*       CLEAR     36  21  54 W7        30.15S WCI  30
SPRINGFIELD    CLEAR     38  23  55 W9        30.17S WCI  31
TAYLORVILLE    CLEAR     37  22  56 W10       30.15F WCI  29
$$

ILZ033-039-045-046-055>057-062-063-192300-
EAST-CENTRAL ILLINOIS

CITY           SKY/WX    TMP DP  RH WIND       PRES   REMARKS
CHAMPAIGN      PTCLDY    34  22  61 W12       30.13R WCI  25
DANVILLE*      CLOUDY    33  21  61 W12       30.08R WCI  25
RANTOUL*       PTCLDY    35  24  65 W14       30.12R WCI  25
MATTOON        CLEAR     35  21  56 W8        30.13S WCI  29
PARIS*         PTCLDY    34  25  68 W14       30.14S WCI  25
$$

ILZ079-100>102-192300-
SOUTHWEST ILLINOIS

CITY           SKY/WX    TMP DP  RH WIND       PRES   REMARKS
ALTON          CLEAR     41  21  45 W12       30.19F
BELLEVILLE     CLEAR     41  19  40 W6        30.19S
CAHOKIA*       CLEAR     42  20  41 W7        30.20S
SPARTA*        CLEAR     41  19  42 NW6       30.21S
$$

ILZ064>066-069>071-074>076-080>082-084>086-088>090-092>094-192300-
SOUTH-CENTRAL ILLINOIS

CITY           SKY/WX    TMP DP  RH WIND       PRES   REMARKS
CARBONDALE     CLEAR     41  18  39 NW10      30.21R
CAIRO*         CLEAR     43  23  44 NW7       30.21S
EFFINGHAM*     CLEAR     37  23  57 W10       30.19S WCI  30
MARION         CLEAR     41  18  38 N9        30.21R
MT. VERNON     CLEAR     39  18  42 VRB6      30.20R WCI  35
CENTRALIA*     CLEAR     40  23  50 W9        30.19S
SALEM*         CLEAR     40  19  44 W8        30.19R
METROPOLIS*    CLEAR     43  22  42 NW7       30.21S
$$

ILZ067-068-072-073-078-083-087-091-192300-
SOUTHEAST ILLINOIS

CITY           SKY/WX    TMP DP  RH WIND       PRES   REMARKS
LAWRENCEVILLE  CLEAR     38  22  52 W14       30.17S WCI  30
FLORA*         CLEAR     40  20  45 W10G16    30.16R
FAIRFIELD*     CLEAR     39  20  45 W6        30.19R WCI  35
HARRISBURG*    CLEAR     41  23  49 W7        30.21R
ROBINSON*      PTCLDY    36  21  54 NW12      30.17S WCI  28
CARMI*         CLEAR     39  22  50 W10       30.18S WCI  32
$$

ABBREVIATIONS USED IN REMARKS
   TC - TEMPERATURE IN CELSIUS
  WCI - WIND CHILL INDEX
   HX - HEAT INDEX
  VSB - VISIBILITY
$$





USA.gov is the U.S. government's official web portal to all federal, state and local government web resources and services.